Location: ????????
(54.9045°N, 39.1041°E)
Time: 14:42:11
(UTC+00:00)

NOSS 7 (E) - Visible Passes

Search period start: 12 July 2024 00:00
Search period end: 22 July 2024 00:00
Orbit: 390 x 1675 km, 63.3° (Epoch: 11 July)

Date Brightness Start Highest point End Pass type
(mag) Time Alt. Az. Time Alt. Az. Time Alt. Az.
12 Jul 7.2 00:05:16 10° NW 00:07:45 20° N 00:10:07 10° ENE visible
12 Jul 5.2 19:18:39 10° SSW 19:22:53 41° SE 19:26:14 10° ENE visible
12 Jul 6.0 21:08:07 10° W 21:11:51 39° NNW 21:14:56 10° NE visible
12 Jul 7.2 22:59:02 10° NW 23:01:31 19° N 23:03:50 10° NE visible
13 Jul 4.7 20:01:44 10° SW 20:06:00 80° NW 20:09:21 10° NE visible
13 Jul 6.9 21:52:22 10° WNW 21:55:19 23° NNW 21:57:56 10° NE visible
13 Jul 7.2 23:42:43 10° NW 23:45:12 20° N 23:47:36 10° ENE visible
14 Jul 5.0 18:55:57 10° SSW 19:00:16 45° SE 19:03:38 10° ENE visible
14 Jul 6.2 20:45:36 10° W 20:49:15 36° NNW 20:52:17 10° NE visible
14 Jul 7.3 22:36:30 10° NW 22:38:58 19° N 22:41:14 10° NE visible
15 Jul 4.9 19:39:08 10° WSW 19:43:21 73° NW 19:46:41 10° NE visible
15 Jul 7.1 21:29:50 10° WNW 21:32:42 22° NNW 21:35:16 10° NE visible
15 Jul 7.2 23:20:05 10° NW 23:22:36 21° NNE 23:25:03 10° ENE visible
16 Jul 6.4 20:23:02 10° W 20:26:36 34° NNW 20:29:35 10° NE visible
16 Jul 7.4 22:13:53 10° NW 22:16:20 19° N 22:18:37 10° NE visible
17 Jul 6.2 00:03:12 10° NW 00:06:04 34° NNE 00:09:00 10° E visible
17 Jul 5.1 19:16:29 10° WSW 19:20:39 66° NW 19:23:57 10° NE visible
17 Jul 7.2 21:07:15 10° WNW 21:10:03 21° NNW 21:12:34 10° NE visible
17 Jul 7.1 22:57:23 10° NW 22:59:56 22° NNE 23:02:26 10° ENE visible
18 Jul 6.5 20:00:25 10° W 20:03:53 32° NNW 20:06:50 10° NE visible
18 Jul 7.4 21:51:14 10° NW 21:53:39 19° N 21:55:56 10° NE visible
18 Jul 6.0 23:40:27 10° NW 23:43:22 37° NNE 23:46:20 10° E visible
19 Jul 5.3 18:53:47 10° WSW 18:57:54 60° NW 19:01:10 10° NE visible
19 Jul 7.3 20:44:36 10° WNW 20:47:20 21° NNW 20:49:49 10° NE visible
19 Jul 7.0 22:34:38 10° NW 22:37:13 23° NNE 22:39:45 10° ENE visible
20 Jul 6.7 19:37:44 10° W 19:41:08 30° NNW 19:44:01 10° NE visible
20 Jul 7.4 21:28:30 10° NW 21:30:55 19° N 21:33:12 10° NE visible
20 Jul 5.7 23:17:39 10° NW 23:20:34 40° NNE 23:23:36 10° ESE visible
21 Jul 5.5 18:31:02 10° WSW 18:35:05 55° NW 18:38:20 10° NE visible
21 Jul 7.3 20:21:53 10° WNW 20:24:34 20° N 20:27:00 10° NE visible
21 Jul 6.9 22:11:49 10° NW 22:14:27 24° NNE 22:17:02 10° ENE visible
